QPF
0.03 0.03 0.05 0.08 0.08 0.10 0.13 0.14 0.23 0.32 0.32 0.25 0.20 0.18 0.14 0.11 0.09 0.06 0.05 0.04 0.04 0.03 0.02 0.03 0.03 0.03 0.05 0.06 0.05 0.04 0.04 0.04 0.03 0.03 0.04 0.03 0.02 0.01 0.01 0.01 0.02 0.02 0.02
0.02 0.03 0.05 0.08 0.08 0.08 0.11 0.14 0.16 0.27 0.27 0.23 0.19 0.17 0.14 0.10 0.08 0.06 0.06 0.03 0.03 0.03 0.02 0.02 0.02 0.04 0.06 0.05 0.05 0.05 0.04 0.03 0.02 0.03 0.05 0.07 0.07 0.04 0.01 0.01 0.01 0.01 0.02
0.01 0.02 0.04 0.07 0.08 0.08 0.08 0.10 0.14 0.20 0.22 0.23 0.23 0.20 0.16 0.12 0.09 0.07 0.06 0.03 0.02 0.02 0.03 0.03 0.03 0.05 0.04 0.05 0.04 0.03 0.03 0.03 0.03 0.02 0.03 0.06 0.07 0.06 0.03 0.02 0.02 0.02 0.02
0.01 0.01 0.03 0.03 0.04 0.06 0.07 0.11 0.13 0.16 0.19 0.21 0.21 0.17 0.11 0.09 0.07 0.06 0.06 0.07 0.05 0.04 0.04 0.03 0.04 0.04 0.04 0.05 0.03 0.03 0.03 0.04 0.03 0.02 0.01 0.02 0.03 0.03 0.04 0.03 0.02 0.02 0.03
0.01 0.01 0.01 0.01 0.02 0.04 0.07 0.10 0.13 0.16 0.18 0.18 0.19 0.19 0.16 0.13 0.09 0.06 0.08 0.07 0.05 0.03 0.02 0.03 0.04 0.04 0.04 0.04 0.03 0.04 0.02 0.02 0.02 0.01 0.01 0.01 0.01 0.01 0.03 0.04 0.04 0.03 0.02
0.01 0.01 0.01 0.01 0.01 0.02 0.04 0.07 0.10 0.14 0.18 0.18 0.17 0.16 0.15 0.12 0.09 0.07 0.07 0.06 0.04 0.03 0.02 0.03 0.03 0.03 0.04 0.03 0.03 0.03 0.02 0.01 0.01 0.01 0.01 0.01 0.01 0.01 0.02 0.03 0.03 0.04 0.03
0.01 0.01 0.01 0.01 0.01 0.02 0.03 0.07 0.10 0.14 0.17 0.16 0.15 0.15 0.16 0.13 0.09 0.06 0.06 0.05 0.04 0.03 0.03 0.03 0.04 0.03 0.03 0.03 0.02 0.02 0.02 0.01 0.01 0.01 0.01 0.01 0.01 0.01 0.01 0.01 0.02 0.02 0.02
0.00 0.00 0.01 0.01 0.01 0.02 0.04 0.07 0.09 0.12 0.15 0.16 0.18 0.16 0.15 0.10 0.07 0.07 0.06 0.04 0.03 0.03 0.04 0.05 0.04 0.03 0.03 0.02 0.02 0.02 0.01 0.02 0.01 0.01 0.01 0.00 0.00 0.00 0.01 0.01 0.01 0.01 0.01
0.00 0.00 0.00 0.00 0.01 0.02 0.04 0.07 0.11 0.11 0.10 0.13 0.17 0.17 0.14 0.10 0.08 0.06 0.06 0.06 0.05 0.03 0.05 0.04 0.04 0.04 0.04 0.03 0.03 0.02 0.02 0.03 0.02 0.01 0.01 0.01 0.00 0.00 0.00 0.00 0.00 0.01 0.01
0.00 0.00 0.00 0.00 0.01 0.02 0.04 0.07 0.09 0.11 0.10 0.10 0.11 0.12 0.13 0.11 0.10 0.08 0.07 0.07 0.06 0.05 0.06 0.04 0.04 0.04 0.04 0.04 0.04 0.04 0.03 0.03 0.02 0.02 0.02 0.02 0.01 0.01 0.00 0.00 0.00 0.00 0.00
0.00 0.00 0.00 0.00 0.01 0.02 0.03 0.06 0.07 0.09 0.09 0.08 0.10 0.12 0.11 0.11 0.10 0.09 0.08 0.08 0.08 0.08 0.07 0.05 0.05 0.04 0.04 0.04 0.05 0.03 0.03 0.02 0.02 0.02 0.02 0.02 0.02 0.02 0.01 0.01 0.00 0.00 0.00
0.00 0.00 0.00 0.00 0.01 0.03 0.04 0.05 0.07 0.06 0.07 0.08 0.11 0.12 0.12 0.12 0.10 0.09 0.08 0.08 0.06 0.06 0.07 0.07 0.06 0.04 0.03 0.04 0.04 0.03 0.03 0.04 0.03 0.04 0.05 0.04 0.04 0.04 0.02 0.02 0.01 0.00 0.01
0.00 0.00 0.01 0.03 0.02 0.03 0.06 0.07 0.09 0.09 0.10 0.10 0.10 0.10 0.11 0.12 0.13 0.10 0.08 0.09 0.08 0.09 0.07 0.07 0.06 0.04 0.04 0.03 0.03 0.03 0.05 0.05 0.05 0.06 0.06 0.06 0.06 0.06 0.05 0.04 0.02 0.02 0.01
0.01 0.01 0.03 0.04 0.03 0.05 0.06 0.07 0.09 0.09 0.10 0.10 0.09 0.10 0.11 0.12 0.14 0.13 0.10 0.08 0.08 0.09 0.08 0.07 0.07 0.06 0.05 0.04 0.04 0.05 0.05 0.05 0.05 0.06 0.06 0.07 0.07 0.06 0.06 0.05 0.05 0.04 0.04
0.01 0.01 0.02 0.04 0.04 0.05 0.06 0.07 0.09 0.10 0.10 0.09 0.10 0.10 0.11 0.11 0.11 0.13 0.10 0.08 0.07 0.08 0.11 0.10 0.10 0.10 0.07 0.05 0.05 0.05 0.05 0.07 0.06 0.06 0.06 0.07 0.08 0.07 0.06 0.04 0.05 0.05 0.05
0.01 0.01 0.02 0.02 0.05 0.05 0.04 0.05 0.06 0.09 0.10 0.11 0.10 0.11 0.11 0.10 0.10 0.10 0.09 0.08 0.08 0.10 0.11 0.08 0.09 0.10 0.07 0.07 0.06 0.06 0.06 0.07 0.07 0.07 0.07 0.07 0.06 0.04 0.04 0.03 0.03 0.03 0.04
0.01 0.02 0.03 0.03 0.05 0.05 0.05 0.06 0.05 0.06 0.08 0.09 0.09 0.09 0.10 0.10 0.10 0.10 0.10 0.11 0.11 0.13 0.12 0.13 0.11 0.11 0.11 0.10 0.07 0.06 0.05 0.06 0.06 0.07 0.08 0.06 0.04 0.05 0.04 0.04 0.04 0.02 0.02
0.02 0.02 0.02 0.02 0.03 0.03 0.04 0.05 0.05 0.05 0.06 0.07 0.07 0.08 0.09 0.09 0.10 0.10 0.10 0.10 0.11 0.12 0.11 0.11 0.10 0.10 0.09 0.08 0.06 0.05 0.04 0.04 0.06 0.08 0.10 0.11 0.11 0.09 0.07 0.06 0.06 0.05 0.05
0.03 0.03 0.02 0.03 0.03 0.04 0.04 0.05 0.05 0.07 0.06 0.06 0.07 0.08 0.08 0.09 0.09 0.09 0.10 0.11 0.12 0.12 0.11 0.11 0.12 0.13 0.12 0.08 0.05 0.04 0.03 0.04 0.06 0.08 0.09 0.10 0.11 0.09 0.07 0.07 0.08 0.08 0.07
0.03 0.04 0.04 0.03 0.04 0.06 0.08 0.08 0.09 0.10 0.10 0.09 0.10 0.12 0.13 0.11 0.10 0.11 0.12 0.12 0.12 0.13 0.15 0.16 0.15 0.14 0.13 0.10 0.07 0.05 0.04 0.05 0.07 0.08 0.08 0.08 0.08 0.08 0.07 0.07 0.08 0.08 0.07
0.04 0.05 0.04 0.04 0.05 0.07 0.09 0.09 0.09 0.09 0.11 0.11 0.11 0.11 0.12 0.13 0.11 0.12 0.12 0.10 0.09 0.11 0.12 0.12 0.13 0.10 0.07 0.05 0.04 0.03 0.04 0.05 0.06 0.07 0.07 0.06 0.05 0.04 0.04 0.05 0.06 0.07 0.07
0.04 0.04 0.04 0.04 0.05 0.05 0.06 0.07 0.08 0.10 0.09 0.09 0.09 0.09 0.09 0.08 0.07 0.08 0.08 0.09 0.10 0.10 0.09 0.09 0.08 0.07 0.05 0.04 0.02 0.02 0.01 0.02 0.03 0.04 0.05 0.04 0.04 0.04 0.03 0.03 0.03 0.04 0.05
0.04 0.04 0.04 0.04 0.05 0.05 0.05 0.07 0.06 0.06 0.07 0.07 0.07 0.06 0.05 0.05 0.06 0.07 0.06 0.05 0.06 0.06 0.07 0.06 0.06 0.05 0.05 0.04 0.03 0.02 0.02 0.02 0.02 0.02 0.03 0.02 0.02 0.02 0.02 0.02 0.02 0.02 0.03
0.03 0.04 0.03 0.03 0.04 0.05 0.06 0.07 0.07 0.06 0.06 0.06 0.06 0.05 0.05 0.05 0.05 0.06 0.06 0.06 0.06 0.06 0.06 0.06 0.06 0.07 0.06 0.05 0.05 0.04 0.04 0.03 0.02 0.01 0.01 0.01 0.01 0.01 0.00 0.01 0.01 0.01 0.02
0.03 0.03 0.02 0.02 0.03 0.03 0.04 0.05 0.05 0.05 0.06 0.05 0.05 0.05 0.05 0.04 0.04 0.04 0.05 0.05 0.05 0.05 0.05 0.04 0.05 0.05 0.05 0.05 0.04 0.04 0.03 0.02 0.02 0.02 0.02 0.01 0.01 0.01 0.01 0.01 0.01 0.01 0.01
0.04 0.04 0.03 0.03 0.03 0.03 0.03 0.03 0.03 0.04 0.04 0.03 0.03 0.03 0.03 0.02 0.02 0.02 0.02 0.02 0.02 0.01 0.01 0.01 0.01 0.01 0.01 0.01 0.01 0.01 0.01 0.02 0.02 0.02 0.02 0.02 0.02 0.02 0.02 0.02 0.02 0.02 0.02
MSLP
1005.82 1006.42 1006.99 1007.53 1008.03 1008.55 1009.11 1009.72 1010.38 1011.05 1011.72 1012.32 1012.81 1013.16 1013.38 1013.47 1013.49 1013.47 1013.49 1013.57 1013.75 1014.02 1014.38 1014.78 1015.21 1015.62 1016.01 1016.35 1016.65 1016.92 1017.18 1017.42 1017.66 1017.88 1018.07 1018.23 1018.34 1018.41 1018.43 1018.45 1018.46 1018.49 1018.57
1006.06 1006.76 1007.39 1007.95 1008.44 1008.91 1009.38 1009.90 1010.48 1011.11 1011.76 1012.36 1012.88 1013.27 1013.52 1013.62 1013.64 1013.60 1013.58 1013.63 1013.78 1014.03 1014.39 1014.81 1015.26 1015.69 1016.08 1016.42 1016.71 1016.95 1017.17 1017.39 1017.61 1017.83 1018.03 1018.22 1018.37 1018.47 1018.52 1018.54 1018.54 1018.54 1018.58
1005.96 1006.73 1007.43 1008.03 1008.53 1008.96 1009.38 1009.84 1010.35 1010.94 1011.57 1012.18 1012.73 1013.17 1013.46 1013.62 1013.66 1013.64 1013.63 1013.67 1013.82 1014.08 1014.44 1014.88 1015.34 1015.78 1016.17 1016.49 1016.75 1016.96 1017.15 1017.33 1017.53 1017.74 1017.97 1018.18 1018.37 1018.51 1018.60 1018.63 1018.63 1018.61 1018.59
1005.57 1006.39 1007.15 1007.80 1008.32 1008.75 1009.14 1009.54 1010.02 1010.56 1011.16 1011.79 1012.37 1012.86 1013.22 1013.45 1013.55 1013.59 1013.62 1013.69 1013.86 1014.13 1014.51 1014.96 1015.43 1015.87 1016.26 1016.57 1016.81 1016.99 1017.14 1017.29 1017.47 1017.68 1017.91 1018.15 1018.37 1018.55 1018.66 1018.71 1018.70 1018.66 1018.60
1004.99 1005.86 1006.67 1007.38 1007.94 1008.38 1008.76 1009.13 1009.55 1010.06 1010.65 1011.27 1011.88 1012.42 1012.85 1013.16 1013.34 1013.46 1013.54 1013.67 1013.88 1014.18 1014.57 1015.03 1015.51 1015.97 1016.35 1016.66 1016.88 1017.04 1017.17 1017.30 1017.46 1017.66 1017.89 1018.14 1018.37 1018.57 1018.70 1018.75 1018.73 1018.66 1018.57
1004.41 1005.29 1006.16 1006.91 1007.52 1007.98 1008.36 1008.71 1009.10 1009.57 1010.12 1010.73 1011.35 1011.93 1012.43 1012.81 1013.08 1013.27 1013.43 1013.62 1013.86 1014.20 1014.61 1015.08 1015.57 1016.03 1016.42 1016.73 1016.96 1017.11 1017.23 1017.34 1017.48 1017.66 1017.88 1018.12 1018.35 1018.54 1018.67 1018.72 1018.69 1018.60 1018.48
1003.96 1004.86 1005.76 1006.56 1007.21 1007.70 1008.09 1008.42 1008.77 1009.20 1009.71 1010.29 1010.91 1011.51 1012.04 1012.48 1012.82 1013.09 1013.31 1013.55 1013.83 1014.18 1014.61 1015.09 1015.58 1016.04 1016.44 1016.76 1016.99 1017.16 1017.27 1017.38 1017.50 1017.66 1017.86 1018.07 1018.28 1018.46 1018.57 1018.61 1018.57 1018.47 1018.32
1003.74 1004.65 1005.58 1006.42 1007.11 1007.63 1008.02 1008.34 1008.66 1009.04 1009.50 1010.04 1010.63 1011.22 1011.78 1012.25 1012.64 1012.95 1013.22 1013.49 1013.79 1014.15 1014.57 1015.03 1015.52 1015.97 1016.38 1016.71 1016.95 1017.12 1017.25 1017.36 1017.47 1017.61 1017.77 1017.96 1018.14 1018.28 1018.38 1018.41 1018.37 1018.27 1018.12
1003.78 1004.70 1005.65 1006.52 1007.23 1007.78 1008.18 1008.50 1008.79 1009.13 1009.54 1010.03 1010.57 1011.13 1011.67 1012.15 1012.55 1012.89 1013.17 1013.45 1013.75 1014.09 1014.49 1014.93 1015.38 1015.83 1016.22 1016.55 1016.81 1016.99 1017.12 1017.23 1017.34 1017.46 1017.59 1017.74 1017.89 1018.02 1018.11 1018.14 1018.11 1018.03 1017.90
1004.01 1004.93 1005.90 1006.78 1007.53 1008.10 1008.52 1008.84 1009.11 1009.42 1009.78 1010.22 1010.71 1011.22 1011.73 1012.18 1012.57 1012.90 1013.18 1013.44 1013.72 1014.02 1014.38 1014.77 1015.18 1015.59 1015.97 1016.28 1016.54 1016.73 1016.88 1016.98 1017.08 1017.19 1017.30 1017.43 1017.56 1017.68 1017.77 1017.82 1017.82 1017.78 1017.70
1004.32 1005.23 1006.20 1007.09 1007.85 1008.45 1008.89 1009.23 1009.51 1009.80 1010.14 1010.53 1010.97 1011.43 1011.89 1012.30 1012.66 1012.96 1013.21 1013.44 1013.67 1013.93 1014.23 1014.57 1014.93 1015.29 1015.62 1015.92 1016.16 1016.35 1016.50 1016.61 1016.71 1016.81 1016.92 1017.03 1017.16 1017.28 1017.40 1017.48 1017.53 1017.54 1017.53
1004.54 1005.45 1006.39 1007.29 1008.06 1008.68 1009.16 1009.53 1009.84 1010.14 1010.47 1010.83 1011.23 1011.64 1012.04 1012.41 1012.73 1012.99 1013.21 1013.40 1013.59 1013.81 1014.05 1014.33 1014.62 1014.93 1015.22 1015.48 1015.71 1015.89 1016.03 1016.14 1016.25 1016.35 1016.46 1016.59 1016.73 1016.87 1017.02 1017.15 1017.26 1017.35 1017.41
1004.58 1005.45 1006.37 1007.24 1008.02 1008.66 1009.18 1009.61 1009.97 1010.30 1010.64 1010.99 1011.37 1011.75 1012.11 1012.43 1012.71 1012.93 1013.12 1013.28 1013.44 1013.61 1013.81 1014.04 1014.28 1014.54 1014.78 1015.01 1015.21 1015.37 1015.51 1015.63 1015.74 1015.86 1015.99 1016.14 1016.30 1016.48 1016.66 1016.85 1017.03 1017.18 1017.31
1004.40 1005.21 1006.07 1006.90 1007.66 1008.33 1008.90 1009.38 1009.79 1010.18 1010.56 1010.93 1011.30 1011.66 1011.99 1012.28 1012.53 1012.73 1012.90 1013.05 1013.19 1013.34 1013.51 1013.70 1013.91 1014.13 1014.34 1014.53 1014.71 1014.86 1015.00 1015.12 1015.25 1015.39 1015.54 1015.72 1015.91 1016.13 1016.36 1016.59 1016.82 1017.04 1017.23
1004.03 1004.75 1005.52 1006.29 1007.02 1007.69 1008.29 1008.83 1009.31 1009.77 1010.20 1010.60 1010.99 1011.35 1011.67 1011.95 1012.18 1012.38 1012.54 1012.69 1012.84 1012.99 1013.16 1013.34 1013.54 1013.73 1013.92 1014.09 1014.26 1014.41 1014.54 1014.68 1014.83 1014.99 1015.17 1015.38 1015.60 1015.85 1016.12 1016.39 1016.65 1016.90 1017.13
1003.58 1004.18 1004.83 1005.51 1006.18 1006.83 1007.45 1008.03 1008.58 1009.10 1009.59 1010.04 1010.46 1010.84 1011.16 1011.45 1011.69 1011.90 1012.08 1012.26 1012.43 1012.61 1012.80 1012.99 1013.19 1013.39 1013.57 1013.74 1013.90 1014.05 1014.20 1014.36 1014.53 1014.71 1014.92 1015.15 1015.40 1015.67 1015.95 1016.23 1016.51 1016.77 1017.01
1003.20 1003.64 1004.15 1004.71 1005.29 1005.90 1006.51 1007.12 1007.72 1008.29 1008.84 1009.35 1009.81 1010.22 1010.57 1010.88 1011.15 1011.38 1011.60 1011.82 1012.03 1012.26 1012.48 1012.71 1012.93 1013.15 1013.34 1013.53 1013.69 1013.85 1014.02 1014.19 1014.38 1014.59 1014.82 1015.07 1015.33 1015.61 1015.89 1016.16 1016.42 1016.66 1016.88
1003.01 1003.29 1003.64 1004.05 1004.53 1005.05 1005.63 1006.24 1006.87 1007.50 1008.10 1008.66 1009.18 1009.63 1010.03 1010.37 1010.67 1010.95 1011.22 1011.48 1011.76 1012.03 1012.30 1012.58 1012.84 1013.08 1013.29 1013.49 1013.68 1013.85 1014.03 1014.22 1014.42 1014.65 1014.89 1015.14 1015.41 1015.67 1015.93 1016.17 1016.39 1016.59 1016.77
1003.12 1003.23 1003.41 1003.66 1004.01 1004.45 1004.97 1005.56 1006.20 1006.86 1007.51 1008.13 1008.70 1009.21 1009.65 1010.04 1010.40 1010.73 1011.05 1011.37 1011.69 1012.02 1012.34 1012.66 1012.95 1013.22 1013.47 1013.69 1013.89 1014.07 1014.26 1014.45 1014.66 1014.89 1015.12 1015.37 1015.62 1015.86 1016.08 1016.28 1016.45 1016.59 1016.70
1003.53 1003.49 1003.51 1003.61 1003.83 1004.16 1004.61 1005.17 1005.81 1006.49 1007.19 1007.86 1008.48 1009.05 1009.55 1010.01 1010.41 1010.80 1011.17 1011.53 1011.91 1012.28 1012.64 1012.99 1013.32 1013.62 1013.88 1014.11 1014.31 1014.50 1014.68 1014.87 1015.07 1015.28 1015.50 1015.72 1015.94 1016.15 1016.33 1016.47 1016.58 1016.66 1016.70
1004.21 1004.05 1003.93 1003.90 1004.00 1004.24 1004.62 1005.15 1005.77 1006.47 1007.20 1007.91 1008.59 1009.22 1009.78 1010.29 1010.75 1011.18 1011.59 1012.00 1012.41 1012.81 1013.21 1013.58 1013.92 1014.23 1014.50 1014.73 1014.93 1015.11 1015.27 1015.43 1015.60 1015.78 1015.97 1016.15 1016.33 1016.49 1016.62 1016.72 1016.78 1016.80 1016.78
1005.07 1004.82 1004.61 1004.49 1004.50 1004.67 1005.00 1005.48 1006.10 1006.80 1007.54 1008.29 1009.02 1009.69 1010.31 1010.86 1011.36 1011.83 1012.28 1012.71 1013.14 1013.57 1013.97 1014.36 1014.71 1015.02 1015.28 1015.50 1015.67 1015.82 1015.95 1016.07 1016.19 1016.32 1016.45 1016.59 1016.72 1016.84 1016.93 1016.99 1017.01 1016.99 1016.92
1006.00 1005.74 1005.50 1005.33 1005.29 1005.41 1005.70 1006.16 1006.75 1007.45 1008.20 1008.97 1009.71 1010.41 1011.05 1011.64 1012.17 1012.66 1013.12 1013.57 1014.01 1014.44 1014.85 1015.23 1015.58 1015.87 1016.12 1016.31 1016.46 1016.56 1016.64 1016.70 1016.76 1016.83 1016.90 1016.98 1017.07 1017.15 1017.21 1017.24 1017.24 1017.20 1017.10
1006.97 1006.74 1006.52 1006.36 1006.32 1006.42 1006.68 1007.11 1007.68 1008.35 1009.09 1009.84 1010.58 1011.28 1011.92 1012.51 1013.04 1013.53 1014.00 1014.45 1014.89 1015.31 1015.71 1016.09 1016.42 1016.70 1016.92 1017.08 1017.19 1017.24 1017.26 1017.26 1017.25 1017.25 1017.26 1017.29 1017.33 1017.38 1017.42 1017.46 1017.46 1017.42 1017.33
1007.94 1007.80 1007.65 1007.54 1007.52 1007.63 1007.88 1008.28 1008.81 1009.43 1010.11 1010.82 1011.51 1012.17 1012.78 1013.34 1013.86 1014.34 1014.79 1015.22 1015.65 1016.06 1016.46 1016.82 1017.14 1017.41 1017.60 1017.74 1017.80 1017.81 1017.77 1017.71 1017.64 1017.57 1017.52 1017.51 1017.51 1017.54 1017.59 1017.63 1017.66 1017.65 1017.59
1008.93 1008.92 1008.87 1008.84 1008.87 1008.99 1009.23 1009.59 1010.05 1010.60 1011.19 1011.81 1012.42 1013.01 1013.55 1014.06 1014.53 1014.97 1015.40 1015.82 1016.23 1016.63 1017.02 1017.38 1017.68 1017.94 1018.12 1018.23 1018.27 1018.24 1018.16 1018.04 1017.92 1017.80 1017.72 1017.66 1017.65 1017.68 1017.74 1017.81 1017.88 1017.92 1017.91
Thickness
5806 5801 5794 5787 5778 5770 5763 5758 5753 5750 5747 5744 5742 5742 5743 5746 5748 5750 5750 5749 5748 5747 5747 5746 5744 5743 5742 5741 5740 5739 5737 5736 5738 5734 5732 5734 5737 5736 5736 5735 5734 5733 5732
5800 5795 5789 5783 5775 5767 5760 5756 5753 5749 5745 5744 5743 5744 5744 5745 5747 5749 5748 5748 5747 5746 5746 5745 5743 5742 5741 5740 5739 5738 5735 5736 5738 5732 5727 5724 5726 5732 5737 5736 5734 5734 5733
5799 5792 5786 5780 5774 5766 5760 5757 5752 5748 5746 5745 5743 5742 5742 5742 5743 5744 5745 5746 5746 5745 5745 5744 5743 5742 5740 5738 5738 5737 5734 5733 5736 5737 5730 5722 5719 5725 5732 5735 5735 5734 5734
5803 5794 5786 5779 5774 5768 5763 5757 5751 5747 5745 5744 5742 5740 5739 5739 5741 5743 5743 5744 5744 5744 5743 5742 5742 5741 5740 5738 5737 5737 5737 5734 5732 5735 5736 5734 5731 5724 5722 5729 5733 5735 5733
5805 5795 5788 5781 5776 5770 5763 5757 5751 5747 5745 5744 5743 5741 5741 5742 5743 5743 5741 5741 5742 5742 5742 5741 5741 5740 5739 5739 5738 5738 5737 5736 5734 5733 5734 5734 5733 5733 5725 5721 5726 5730 5733
5805 5797 5791 5784 5776 5771 5764 5757 5750 5746 5745 5744 5743 5742 5742 5742 5741 5740 5738 5739 5739 5740 5741 5740 5739 5739 5739 5738 5738 5737 5736 5735 5735 5735 5735 5733 5731 5730 5729 5725 5725 5726 5731
5804 5796 5789 5782 5775 5769 5763 5757 5751 5746 5745 5744 5743 5743 5743 5742 5740 5739 5738 5738 5738 5738 5739 5740 5738 5738 5738 5737 5737 5736 5736 5735 5734 5733 5734 5735 5735 5736 5733 5729 5726 5727 5730
5804 5797 5790 5784 5777 5770 5764 5759 5753 5748 5746 5744 5743 5743 5743 5742 5741 5741 5740 5739 5740 5740 5740 5739 5737 5737 5737 5737 5736 5736 5735 5734 5733 5733 5733 5733 5735 5736 5735 5731 5727 5722 5725
5803 5797 5791 5785 5779 5773 5767 5762 5755 5751 5748 5745 5743 5742 5742 5741 5741 5741 5740 5740 5741 5741 5739 5738 5736 5736 5736 5736 5734 5733 5733 5733 5732 5731 5731 5730 5732 5734 5734 5734 5731 5723 5716
5803 5797 5791 5786 5781 5775 5770 5765 5758 5753 5750 5747 5744 5742 5741 5741 5741 5740 5739 5739 5740 5740 5738 5737 5735 5734 5734 5734 5733 5732 5732 5731 5730 5729 5728 5729 5730 5731 5732 5731 5730 5728 5722
5801 5795 5790 5786 5780 5775 5769 5763 5758 5753 5750 5747 5745 5743 5741 5741 5740 5739 5739 5739 5738 5738 5736 5735 5734 5733 5733 5732 5731 5730 5730 5728 5727 5727 5727 5726 5726 5725 5726 5727 5726 5725 5722
5799 5793 5787 5782 5778 5772 5768 5763 5758 5754 5751 5749 5745 5742 5740 5740 5738 5738 5738 5738 5737 5736 5735 5734 5733 5732 5732 5732 5730 5728 5728 5727 5725 5725 5724 5723 5724 5722 5721 5721 5721 5720 5720
5792 5787 5782 5776 5772 5769 5766 5762 5758 5754 5751 5748 5744 5741 5739 5738 5737 5737 5737 5736 5735 5734 5734 5733 5732 5731 5731 5730 5729 5727 5726 5725 5724 5723 5722 5721 5719 5717 5717 5716 5715 5715 5716
5784 5780 5776 5770 5767 5765 5763 5759 5757 5754 5751 5747 5743 5740 5738 5737 5736 5735 5734 5734 5733 5732 5732 5731 5730 5730 5729 5728 5727 5725 5724 5722 5722 5721 5719 5718 5716 5714 5712 5711 5710 5709 5707
5778 5773 5770 5766 5763 5760 5759 5757 5754 5752 5750 5746 5742 5739 5738 5737 5735 5733 5733 5732 5731 5731 5730 5729 5727 5726 5725 5724 5723 5722 5721 5719 5717 5717 5716 5715 5713 5712 5709 5707 5705 5702 5700
5772 5769 5765 5762 5759 5756 5755 5754 5751 5750 5747 5743 5741 5739 5736 5734 5732 5731 5730 5729 5728 5727 5726 5724 5722 5721 5720 5720 5719 5718 5717 5715 5713 5711 5710 5710 5708 5707 5704 5702 5700 5697 5694
5767 5763 5761 5758 5755 5754 5753 5749 5748 5747 5743 5740 5737 5736 5734 5731 5729 5729 5727 5725 5724 5723 5721 5719 5718 5715 5714 5713 5713 5712 5711 5710 5708 5706 5704 5704 5705 5702 5699 5696 5694 5691 5689
5759 5758 5757 5754 5753 5751 5750 5747 5745 5741 5738 5735 5733 5732 5730 5727 5725 5724 5723 5721 5720 5717 5716 5714 5713 5710 5707 5706 5706 5705 5705 5703 5702 5700 5698 5695 5694 5693 5691 5689 5687 5685 5683
5751 5752 5752 5750 5748 5746 5744 5741 5738 5735 5731 5729 5728 5727 5726 5723 5721 5719 5717 5716 5715 5712 5711 5709 5707 5703 5700 5698 5697 5696 5696 5694 5693 5692 5690 5688 5685 5682 5680 5679 5678 5677 5675
5742 5743 5744 5743 5740 5739 5738 5733 5729 5727 5724 5723 5722 5721 5720 5717 5715 5714 5713 5711 5709 5706 5704 5701 5699 5695 5691 5689 5687 5685 5686 5684 5682 5681 5679 5676 5673 5671 5669 5667 5666 5664 5664
5729 5730 5730 5730 5729 5730 5729 5724 5721 5720 5719 5718 5716 5715 5713 5710 5709 5708 5706 5704 5701 5698 5695 5692 5689 5685 5682 5678 5676 5674 5673 5672 5671 5669 5667 5663 5660 5658 5656 5654 5653 5651 5649
5714 5716 5715 5715 5717 5719 5718 5714 5711 5712 5712 5710 5708 5706 5705 5704 5702 5699 5697 5695 5693 5689 5685 5682 5678 5674 5671 5667 5664 5662 5660 5659 5658 5656 5653 5650 5647 5645 5643 5642 5640 5638 5636
5700 5702 5701 5701 5701 5703 5704 5701 5700 5702 5701 5699 5697 5695 5693 5691 5690 5688 5685 5683 5681 5678 5675 5672 5667 5663 5659 5655 5651 5649 5648 5646 5644 5642 5639 5637 5635 5633 5631 5629 5626 5624 5622
5685 5687 5687 5685 5685 5687 5688 5689 5689 5689 5688 5685 5683 5682 5679 5676 5673 5672 5669 5666 5664 5662 5660 5657 5653 5649 5644 5640 5637 5636 5634 5632 5630 5627 5626 5624 5622 5620 5617 5615 5613 5611 5609
5671 5672 5672 5671 5670 5671 5672 5674 5675 5675 5673 5672 5670 5668 5666 5662 5658 5653 5649 5647 5643 5644 5642 5639 5636 5632 5628 5621 5618 5618 5618 5616 5613 5611 5612 5613 5611 5609 5606 5603 5600 5598 5595
5657 5658 5658 5657 5657 5658 5658 5659 5661 5662 5661 5659 5657 5656 5654 5650 5647 5641 5634 5629 5628 5626 5624 5622 5619 5614 5610 5608 5606 5605 5603 5601 5599 5597 5598 5597 5594 5591 5588 5585 5582 5580 5576